• Join FlightAware (Why Join?)
  • Login
  • US Flag 
09:53PM EDT


 

Airport Tracker/Info


-or-


 

Live Flight TrackerFlight Track Log ✈ SKW6528 ✈ 17-Apr-2013 ✈ KBFL - KDEN

Flight Track Log - Related Links

Times and Time Zones

All times are in EDT time to prevent confusion due to time zone crossing. See the SKW6528 flight status page for this flight to view local times or setup timezone preferences in your user account.

Time Position Orientation Groundspeed Altitude Reporting Facility
EDT Latitude Longitude Course Direction KTS MPH feet Rate Location/Type
09:13AM 35.4517 -119.1372 131° Southeast 209 241 33,000  Level Los Angeles Center
09:14AM 35.4064 -119.1197 163° South 223 257 6,000 -12,420 Descending Los Angeles Center
09:15AM 35.0548 -118.6111 136° Southeast  Level FlightAware Approximate
09:15AM 35.3542 -119.0583 136° Southeast 248 285 8,000  Level Los Angeles Center
09:16AM 34.9630 -118.4963 141° Southeast  Level FlightAware Approximate
09:16AM 35.2981 -118.9806 131° Southeast 279 321 10,000  Level Los Angeles Center
09:17AM 34.8748 -118.3774 132° Southeast  Level FlightAware Approximate
09:17AM 35.2394 -118.8975 131° Southeast 302 348 12,100  Level Los Angeles Center
09:18AM 34.7817 -118.2644 131° Southeast  Level FlightAware Approximate
09:18AM 35.1625 -118.7911 131° Southeast 332 382 14,000  Level Los Angeles Center
09:19AM 35.0917 -118.6953 132° Southeast 367 422 15,400 1,320 Climbing Los Angeles Center
09:20AM 35.0183 -118.5950 132° Southeast 389 448 16,700 1,200 Climbing Los Angeles Center
09:21AM 34.9417 -118.4894 132° Southeast 408 470 17,900 1,080 Climbing Los Angeles Center
09:22AM 34.8639 -118.3814 131° Southeast 431 496 18,900 900 Climbing Los Angeles Center
09:23AM 34.7806 -118.2683 132° Southeast 450 518 19,800 900 Climbing Los Angeles Center
09:24AM 34.6939 -118.1519 132° Southeast 464 534 20,800 1,020 Climbing Los Angeles Center
09:25AM 34.6381 -118.0175 117° Southeast 464 534 21,900 900 Climbing Los Angeles Center
09:26AM 34.6519 -117.8781 83° East 423 487 22,700 780 Climbing Los Angeles Center
09:27AM 34.6675 -117.7350 82° East 430 495 23,500 780 Climbing Los Angeles Center
09:28AM 34.6828 -117.5878 83° East 440 506 24,400 900 Climbing Los Angeles Center
09:29AM 34.7014 -117.4103 83° East 445 512 25,400 780 Climbing Los Angeles Center
09:30AM 34.7394 -117.2739 71° East 434 499 26,100 540 Climbing Los Angeles Center
09:31AM 34.7831 -117.1392 68° East 433 498 26,600 420 Climbing Los Angeles Center
09:32AM 34.8261 -117.0019 69° East 437 503 27,100 420 Climbing Los Angeles Center
09:33AM 34.8806 -116.8339 68° East 446 513 27,600 360 Climbing Los Angeles Center
09:34AM 34.9386 -116.7067 61° Northeast 431 496 27,900 300 Climbing Los Angeles Center
09:35AM 35.0197 -116.6019 47° Northeast 426 490 28,300 360 Climbing Los Angeles Center
09:36AM 35.1153 -116.4744 47° Northeast 428 493 28,700 300 Climbing Los Angeles Center
09:37AM 35.1950 -116.3667 48° Northeast 429 494 29,000 240 Climbing Los Angeles Center
09:38AM 35.2792 -116.2586 46° Northeast 436 502 29,300 240 Climbing Los Angeles Center
09:39AM 35.3597 -116.1456 49° Northeast 441 507 29,600 240 Climbing Los Angeles Center
09:40AM 35.4425 -116.0300 49° Northeast 449 517 29,800 180 Climbing Los Angeles Center
09:41AM 35.5011 -115.8875 63° Northeast 467 537 30,000 240 Climbing Los Angeles Center
09:42AM 35.5669 -115.7169 65° Northeast 475 547 30,400 360 Climbing Los Angeles Center
09:43AM 35.6269 -115.5739 63° Northeast 475 547 30,800 240 Climbing Los Angeles Center
09:44AM 35.6850 -115.4311 63° Northeast 471 542 31,000 180 Climbing Los Angeles Center
09:46AM 35.7433 -115.2864 64° Northeast 474 545 31,200 240 Climbing Los Angeles Center
09:47AM 35.7986 -115.1411 65° Northeast 472 543 31,600 360 Climbing Los Angeles Center
09:48AM 35.8553 -114.9967 64° Northeast 471 542 32,000 360 Climbing Los Angeles Center
09:49AM 35.9111 -114.8531 64° Northeast 469 540 32,400 300 Climbing Los Angeles Center
09:50AM 35.9667 -114.7111 64° Northeast 464 534 32,700 240 Climbing Los Angeles Center
09:51AM 36.0311 -114.5428 65° Northeast 457 526 33,000 120 Climbing Los Angeles Center
09:52AM 36.0867 -114.4014 64° Northeast 458 527 33,000  Level Los Angeles Center
09:53AM 36.1433 -114.2581 64° Northeast 464 534 33,000  Level Los Angeles Center
09:54AM 36.1981 -114.1128 65° Northeast 467 537 33,000  Level Los Angeles Center
09:55AM 36.2528 -113.9672 65° Northeast 466 536 33,000  Level Los Angeles Center
09:56AM 36.2794 -113.8042 78° East 478 550 33,000  Level Los Angeles Center
09:57AM 36.3083 -113.6422 77° East 482 555 33,000  Level Los Angeles Center
09:58AM 36.3564 -113.4858 69° East 488 562 33,000  Level Los Angeles Center
09:59AM 36.4278 -113.3083 63° Northeast 482 555 33,000  Level Los Angeles Center
10:00AM 36.4792 -113.1792 64° Northeast 485 558 33,000  Level Los Angeles Center
10:01AM 36.5483 -113.0017 64° Northeast 479 551 33,000  Level Los Angeles Center
10:02AM 36.6056 -112.8536 64° Northeast 478 550 33,000  Level Los Angeles Center
10:03AM 36.6636 -112.7050 64° Northeast 481 554 33,000  Level Los Angeles Center
10:04AM 36.7203 -112.5561 65° Northeast 480 552 33,000  Level Los Angeles Center
10:05AM 36.7767 -112.4064 65° Northeast 480 552 33,000  Level Los Angeles Center
10:06AM 36.8333 -112.2572 65° Northeast 480 552 33,000  Level Los Angeles Center
10:07AM 36.8897 -112.1072 65° Northeast 480 552 33,000  Level Los Angeles Center
10:07AM 36.9117 -112.0489 65° Northeast 482 555 33,000  Level Denver Center
10:08AM 36.9678 -111.8994 65° Northeast 480 552 33,000  Level Denver Center
10:09AM 37.0250 -111.7481 65° Northeast 482 555 33,000  Level Denver Center
10:10AM 37.0800 -111.5969 65° Northeast 482 555 33,000  Level Denver Center
10:11AM 37.1322 -111.4469 66° East 475 547 33,000  Level Denver Center
10:12AM 37.1892 -111.2939 65° Northeast 487 560 33,000  Level Denver Center
10:13AM 37.2561 -111.1097 65° Northeast 486 559 33,000  Level Denver Center
10:14AM 37.3103 -110.9561 66° East 484 557 33,000  Level Denver Center
10:15AM 37.3653 -110.8036 66° East 482 555 33,000  Level Denver Center
10:16AM 37.4203 -110.6494 66° East 485 558 33,000  Level Denver Center
10:18AM 37.4883 -110.4556 66° East 485 558 33,000  Level Denver Center
10:19AM 37.5411 -110.3069 66° East 485 558 33,000  Level Denver Center
10:20AM 37.6108 -110.1081 66° East 486 559 33,000  Level Denver Center
10:21AM 37.6625 -109.9578 66° East 488 562 33,000  Level Denver Center
10:22AM 37.7231 -109.7833 66° East 486 559 33,000  Level Denver Center
10:23AM 37.7750 -109.6319 66° East 490 564 33,000  Level Denver Center
10:24AM 37.8272 -109.4822 66° East 487 560 33,000  Level Denver Center
10:25AM 37.8867 -109.3067 67° East 486 559 33,000  Level Denver Center
10:26AM 37.9378 -109.1544 67° East 488 562 33,000  Level Denver Center
10:27AM 37.9978 -108.9789 67° East 487 560 33,000  Level Denver Center
10:28AM 38.0486 -108.8261 67° East 489 563 33,000  Level Denver Center
10:29AM 38.1019 -108.6617 68° East 497 572 33,000  Level Denver Center
10:30AM 38.1525 -108.5097 67° East 492 566 33,000  Level Denver Center
10:31AM 38.2117 -108.3325 67° East 489 563 33,000  Level Denver Center
10:32AM 38.2608 -108.1792 68° East 491 565 33,000  Level Denver Center
10:33AM 38.3197 -108.0008 67° East 491 565 33,000  Level Denver Center
10:34AM 38.3706 -107.8478 67° East 492 566 33,000  Level Denver Center
10:35AM 38.4289 -107.6653 68° East 496 571 33,000  Level Denver Center
10:36AM 38.4875 -107.5147 64° Northeast 498 573 33,000  Level Denver Center
10:37AM 38.5547 -107.3661 60° Northeast 503 579 33,000  Level Denver Center
10:38AM 38.6339 -107.1942 59° Northeast 505 581 33,000 -420 Level Denver Center
10:39AM 38.7019 -107.0450 60° Northeast 515 593 32,200 -840 Descending Denver Center
10:40AM 38.7750 -106.8850 60° Northeast 523 602 31,300 -900 Descending Denver Center
10:41AM 38.8494 -106.7200 60° Northeast 536 617 30,400 -960 Descending Denver Center
10:42AM 38.9375 -106.5231 60° Northeast 529 609 29,400 -1,020 Descending Denver Center
10:44AM 39.0061 -106.3683 60° Northeast 522 601 28,400 -900 Descending Denver Center
10:45AM 39.0711 -106.2175 61° Northeast 507 583 27,600 -840 Descending Denver Center
10:46AM 39.1361 -106.0617 62° Northeast 498 573 26,700 -1,020 Descending Denver Center
10:47AM 39.1264 -105.8925 94° East 401 461 25,600 -1,080 Descending Denver Center
10:48AM 39.0639 -105.8119 135° Southeast 301 346 24,500 -1,080 Descending Denver Center
10:49AM 38.9992 -105.8100 179° South 248 285 23,500 -1,020 Descending Denver Center
10:50AM 38.9522 -105.8706 225° Southwest 238 274 22,500 -1,020 Descending Denver Center
10:51AM 38.9181 -105.9539 242° Southwest 257 296 21,500 -780 Descending Denver Center
10:52AM 38.8858 -106.0372 244° Southwest 259 298 21,000 -240 Descending Denver Center
10:53AM 38.8319 -106.0872 216° Southwest 244 281 21,100  Climbing Denver Center
10:54AM 38.8569 -106.1692 291° West 288 331 21,000 -240 Descending Denver Center
10:55AM 38.9511 -106.1528 North 368 423 20,700 -660 Descending Denver Center
10:56AM 39.0328 -106.0214 51° Northeast 398 458 19,700 -600 Descending Denver Center
10:57AM 39.0814 -105.9494 49° Northeast 395 455 19,500 -540 Descending Denver Center
10:58AM 39.1722 -105.8144 49° Northeast 373 429 18,600 -720 Descending Denver Center
10:59AM 39.2367 -105.7169 50° Northeast 355 409 18,100 -420 Descending Denver Center
11:00AM 39.3036 -105.6172 49° Northeast 361 415 17,800 -300 Descending Denver Center
11:01AM 39.3714 -105.5153 49° Northeast 368 423 17,500 -360 Descending Denver Center
11:02AM 39.4039 -105.3853 72° East 357 411 17,100 -840 Descending Denver Center
11:03AM 39.4061 -105.2514 89° East 343 395 15,800 -1,140 Descending Denver Center
11:04AM 39.4100 -105.1419 87° East 306 352 14,800 -1,020 Descending Denver Center
11:05AM 39.4142 -105.0417 87° East 283 326 13,800 -900 Descending Denver Center
11:06AM 39.4189 -104.9364 87° East 275 316 13,000 -540 Descending Denver Center
11:07AM 39.4269 -104.8425 84° East 267 307 12,800 -840 Descending Denver Center
11:08AM 39.4386 -104.7453 81° East 258 297 11,100 -840 Descending Denver Center
11:09AM 39.4975 -104.6783 41° Northeast 248 285 11,000 -120 Descending Denver Center
11:10AM 39.5661 -104.6642 North 249 287 10,900 -360 Descending Denver Center
11:12AM 39.6339 -104.6642 360° North 228 262 10,300 -1,140 Descending Denver Center
11:13AM 39.6836 -104.6625 North 186 214 8,600 -1,680 Descending Denver Center